CZ-6A DEB, 56685

Orbit data source: Space-Track

CZ-6A DEB, 56685 is space debris in SSO originally from a launch on Fri, 11 Nov 2022 UTC launched from the Taiyaun Space Center, China (TSC). Debris objects in space refer to the collection of defunct objects orbiting the Earth. Examples of debris include non-operational satellites, rocket bodies, and fragments generated from explosions, collisions, or faulty payload assembly.

Loading next visibility...
Identifier
56685, 2022-151AHM
Orbit
SSO
Country
Flag of CNCN / PRC
Related business
Manufacturer
SAST
Mission
Spacecraft
Bus & Motor
Unknown
Mass
Unknown
Launch date (UTC)
2022-11-11 (4 years ago)
Launch vehicle
Unknown
Launch site
Taiyaun Space Center, China (TSC)
Object type
Payload
Rocket body
Debris
Shape & HBR
Unknown shape, 0.1 m
Radar Cross Section
Small (<0.1 m²)

Expand to show TLE details & history
Last TLE update: 4 days ago

TLE from 4 days ago
0 CZ-6A DEB
1 56685U 22151AHM 26169.94180905  .00001745  00000-0  85035-3 0  9992
2 56685  98.8166 176.6353 0040588 310.5363  49.2280 14.19019813161535
Epoch: 2026-06-18T22:36Z
TLE epoch observation values (Epoch: 2026-06-18T22:36:12.301Z)
Latitude
-0.00009°
Longitude
-69.59385°
Altitude
812.542 km
Speed
7.457 km/s
True Right ascension
11h 46m 32s
True Declination
0° 00' 00"
Sunlit
Object was in daylight at epoch
Visualization orbit readout
Latitude
Unknown
Longitude
Unknown
Altitude
Unknown
Speed
Unknown
Apparent Right ascension
Unknown
Apparent Declination
Unknown
Sunlit
N/A
Visualization observer readout
Local Sidereal Time
21:50:08
Azimuth
Unknown
Elevation
Unknown
Doppler factor
Unknown
Orbital elements
Apogee altitude
855.074 km
Perigee altitude
796.595 km
Semi-major axis
7,203.972 km
Eccentricity
0.00406
Inclination
98.8166°
RAAN
176.6353°
Arg. of periapsis
310.5363°
True anomaly
49.5814°
Mean anomaly
49.228°
Eccentric anomaly
49.40458°
Mean motion
3.54965 °/min
Orbital period
101.42 mins
BSTAR
0.00085035
Loading maneuver chart data...
Computing Atmospheric mass density...
Loading historical data...
Loading historical data...
Loading historical data...
Loading historical data...
Loading historical data...
Loading historical data...
Loading historical data...

Documentation

Showing up to 5 results
|